| time (UTC) | temp F | wind direction | speed MPH | gust MPH | rain 1hr in | rain 24hr in | rain mn in | humidity % | barometer mb |
| 20260502130713 | 50 | 356 | 2.0 | 13.0 | 0.00 | 0.00 | 0.00 | 63 | 906.4 |
| 20260502130212 | 49 | 1 | 3.0 | 13.0 | 0.00 | 0.00 | 0.00 | 66 | 919.7 |
| 20260502123655 | 44 | 0 | 2.0 | 13.0 | 0.00 | 0.00 | 0.00 | 74 | 745.9 |
| 20260502123154 | 44 | 16 | 2.0 | 13.0 | 0.00 | 0.00 | 0.00 | 75 | 865.6 |
| 20260502122653 | 43 | 356 | 1.0 | 13.0 | 0.00 | 0.00 | 0.00 | 76 | 1213.3 |
| 20260502122153 | 43 | 341 | 1.0 | 13.0 | 0.00 | 0.00 | 0.00 | 77 | 1203.6 |
| 20260502121652 | 42 | 349 | 1.0 | 13.0 | 0.00 | 0.00 | 0.00 | 78 | 1213.3 |
| 20260502121152 | 42 | 349 | 1.0 | 13.0 | 0.00 | 0.00 | 0.00 | 79 | 1215.3 |
| 20260502120651 | 42 | 352 | 1.0 | 13.0 | 0.00 | 0.00 | 0.00 | 80 | 1219.7 |
| 20260502115634 | 42 | 353 | 0.0 | 13.0 | 0.00 | 0.00 | 0.00 | 80 | 1219.2 |
| 20260502115134 | 42 | 353 | 0.0 | 13.0 | 0.00 | 0.00 | 0.00 | 80 | 1219.0 |
| 20260502114118 | 42 | 353 | 0.0 | 13.0 | 0.00 | 0.00 | 0.00 | 79 | 1218.5 |
| 20260502113102 | 42 | 353 | 0.0 | 13.0 | 0.00 | 0.00 | 0.00 | 77 | 1217.5 |
| 20260502112602 | 42 | 353 | 0.0 | 13.0 | 0.00 | 0.00 | 0.00 | 78 | 1216.6 |
| 20260502111547 | 42 | 353 | 0.0 | 13.0 | 0.00 | 0.00 | 0.00 | 76 | 1214.4 |
| 20260502111047 | 42 | 353 | 0.0 | 13.0 | 0.00 | 0.00 | 0.00 | 76 | 1214.7 |
| 20260502110546 | 42 | 353 | 0.0 | 13.0 | 0.00 | 0.00 | 0.00 | 76 | 1214.7 |
| 20260502110045 | 42 | 353 | 0.0 | 13.0 | 0.00 | 0.00 | 0.00 | 77 | 1214.9 |
| 20260502105029 | 43 | 353 | 0.0 | 13.0 | 0.00 | 0.00 | 0.00 | 78 | 1212.5 |
| 20260502104528 | 43 | 353 | 0.0 | 13.0 | 0.00 | 0.00 | 0.00 | 78 | 1209.7 |
| 20260502102957 | 44 | 353 | 0.0 | 13.0 | 0.00 | 0.00 | 0.00 | 77 | 1188.6 |
| 20260502101426 | 44 | 353 | 0.0 | 13.0 | 0.00 | 0.00 | 0.00 | 74 | 1033.6 |
| 20260502100925 | 44 | 353 | 0.0 | 13.0 | 0.00 | 0.00 | 0.00 | 74 | 868.8 |
| 20260502100424 | 44 | 353 | 0.0 | 13.0 | 0.00 | 0.00 | 0.00 | 74 | 545.7 |
| 20260502091401 | 45 | 2 | 1.0 | 13.0 | 0.00 | 0.00 | 0.00 | 73 | 457.3 |
| 20260502090900 | 45 | 10 | 2.0 | 13.0 | 0.00 | 0.00 | 0.00 | 71 | 722.5 |
| 20260502090359 | 45 | 349 | 1.0 | 13.0 | 0.00 | 0.00 | 0.00 | 70 | 1128.4 |
| 20260502071321 | 48 | 11 | 1.0 | 13.0 | 0.00 | 0.00 | 0.00 | 70 | 629.5 |
| 20260502070821 | 48 | 359 | 1.0 | 13.0 | 0.00 | 0.00 | 0.00 | 70 | 590.3 |
| 20260502065806 | 48 | 0 | 2.0 | 13.0 | 0.00 | 0.00 | 0.00 | 70 | 947.1 |
| 20260502065306 | 49 | 359 | 2.0 | 13.0 | 0.00 | 0.00 | 0.00 | 70 | 870.3 |
| 20260502064806 | 49 | 357 | 2.0 | 13.0 | 0.00 | 0.00 | 0.00 | 70 | 956.4 |
| 20260502063750 | 49 | 356 | 2.0 | 13.0 | 0.00 | 0.00 | 0.00 | 71 | 1094.3 |
| 20260502063249 | 49 | 0 | 2.0 | 13.0 | 0.00 | 0.00 | 0.00 | 71 | 1109.4 |
| 20260502062748 | 50 | 352 | 2.0 | 13.0 | 0.00 | 0.00 | 0.00 | 71 | 1123.5 |
| 20260502061215 | 50 | 0 | 2.0 | 13.0 | 0.00 | 0.00 | 0.00 | 71 | 1065.9 |
| 20260502060714 | 50 | 346 | 2.0 | 13.0 | 0.00 | 0.00 | 0.00 | 71 | 1177.4 |
| 20260502055658 | 51 | 357 | 2.0 | 13.0 | 0.00 | 0.00 | 0.00 | 70 | 1111.9 |
| 20260502055157 | 51 | 359 | 2.0 | 13.0 | 0.00 | 0.00 | 0.00 | 69 | 1027.6 |
| 20260502054656 | 51 | 352 | 2.0 | 13.0 | 0.00 | 0.00 | 0.00 | 69 | 1013.0 |
| 20260502053639 | 51 | 1 | 2.0 | 13.0 | 0.00 | 0.00 | 0.00 | 68 | 938.1 |
| 20260502053138 | 51 | 332 | 2.0 | 13.0 | 0.00 | 0.00 | 0.00 | 69 | 1004.4 |
| 20260502052121 | 52 | 347 | 1.0 | 13.0 | 0.00 | 0.00 | 0.00 | 70 | 1114.9 |
| 20260502051620 | 52 | 359 | 1.0 | 13.0 | 0.00 | 0.00 | 0.00 | 70 | 1023.8 |
| 20260502051119 | 52 | 0 | 1.0 | 13.0 | 0.00 | 0.00 | 0.00 | 70 | 1229.4 |
| 20260502050618 | 52 | 0 | 1.0 | 13.0 | 0.00 | 0.00 | 0.00 | 70 | 1223.4 |
| 20260502050117 | 52 | 0 | 0.0 | 13.0 | 0.00 | 0.00 | 0.00 | 69 | 1211.0 |
| 20260502045616 | 52 | 0 | 0.0 | 13.0 | 0.00 | 0.00 | 0.00 | 69 | 1186.5 |
| 20260502045115 | 52 | 0 | 0.0 | 13.0 | 0.00 | 0.00 | 0.00 | 69 | 1139.1 |
| 20260502044614 | 52 | 0 | 0.0 | 13.0 | 0.00 | 0.00 | 0.00 | 68 | 1043.6 |
| 20260502044113 | 52 | 45 | 0.0 | 13.0 | 0.00 | 0.00 | 0.00 | 68 | 843.9 |
| 20260502043613 | 52 | 0 | 0.0 | 13.0 | 0.00 | 0.00 | 0.00 | 67 | 1232.3 |
| 20260502043112 | 53 | 0 | 0.0 | 13.0 | 0.00 | 0.00 | 0.00 | 67 | 1232.9 |
| 20260502042611 | 53 | 0 | 1.0 | 13.0 | 0.00 | 0.00 | 0.00 | 66 | 1231.0 |
| 20260502035452 | 54 | 0 | 0.0 | 13.0 | 0.00 | 0.00 | 0.00 | 63 | 1045.4 |
| 20260502034951 | 54 | 0 | 0.0 | 13.0 | 0.00 | 0.00 | 0.00 | 63 | 868.7 |
| 20260502034450 | 54 | 0 | 1.0 | 13.0 | 0.00 | 0.00 | 0.00 | 63 | 516.0 |
| 20260502033950 | 54 | 0 | 1.0 | 13.0 | 0.00 | 0.00 | 0.00 | 63 | 312.6 |
| 20260502033450 | 55 | 0 | 1.0 | 13.0 | 0.00 | 0.00 | 0.00 | 62 | 449.6 |
| 20260502032433 | 55 | 359 | 1.0 | 13.0 | 0.00 | 0.00 | 0.00 | 62 | 1196.9 |
| 20260502031932 | 55 | 359 | 1.0 | 13.0 | 0.00 | 0.00 | 0.00 | 61 | 1162.1 |
| 20260502031431 | 55 | 314 | 1.0 | 13.0 | 0.00 | 0.00 | 0.00 | 62 | 1098.4 |
| 20260502030930 | 55 | 314 | 0.0 | 13.0 | 0.00 | 0.00 | 0.00 | 61 | 1098.2 |
| 20260502030429 | 56 | 314 | 1.0 | 13.0 | 0.00 | 0.00 | 0.00 | 61 | 1098.1 |
| 20260502025928 | 56 | 314 | 1.0 | 13.0 | 0.00 | 0.00 | 0.00 | 59 | 1097.3 |
| 20260502025427 | 56 | 314 | 0.0 | 13.0 | 0.00 | 0.00 | 0.00 | 58 | 1097.2 |
| 20260502024926 | 56 | 314 | 1.0 | 13.0 | 0.00 | 0.00 | 0.00 | 59 | 1097.5 |
| 20260502024425 | 57 | 314 | 0.0 | 13.0 | 0.00 | 0.00 | 0.00 | 59 | 1098.1 |
| 20260502023924 | 57 | 314 | 0.0 | 13.0 | 0.00 | 0.00 | 0.00 | 59 | 1098.8 |
| 20260502023423 | 57 | 314 | 0.0 | 13.0 | 0.00 | 0.00 | 0.00 | 58 | 1099.3 |
| 20260502022922 | 57 | 314 | 0.0 | 13.0 | 0.00 | 0.00 | 0.00 | 58 | 1099.6 |
| 20260502022421 | 57 | 314 | 0.0 | 13.0 | 0.00 | 0.00 | 0.00 | 57 | 1099.8 |
| 20260502021404 | 57 | 314 | 0.0 | 13.0 | 0.00 | 0.00 | 0.00 | 57 | 1100.2 |
| 20260502020347 | 57 | 315 | 0.0 | 13.0 | 0.00 | 0.00 | 0.00 | 58 | 1102.7 |
| 20260502015846 | 57 | 315 | 0.0 | 13.0 | 0.00 | 0.00 | 0.00 | 58 | 1101.8 |
| 20260502015345 | 58 | 315 | 0.0 | 13.0 | 0.00 | 0.00 | 0.00 | 58 | 1100.9 |
| 20260502013256 | 59 | 315 | 0.0 | 13.0 | 0.00 | 0.00 | 0.00 | 53 | 1099.4 |
| 20260502012239 | 60 | 315 | 0.0 | 13.0 | 0.00 | 0.00 | 0.00 | 52 | 1099.8 |
| 20260502011738 | 60 | 315 | 0.0 | 13.0 | 0.00 | 0.00 | 0.00 | 51 | 1099.9 |
| 20260502011237 | 60 | 315 | 0.0 | 13.0 | 0.00 | 0.00 | 0.00 | 52 | 1099.9 |
| 20260502010736 | 60 | 315 | 0.0 | 13.0 | 0.00 | 0.00 | 0.00 | 52 | 1099.4 |
| 20260502005203 | 61 | 315 | 0.0 | 13.0 | 0.00 | 0.00 | 0.00 | 49 | 1094.9 |
| 20260502004702 | 61 | 315 | 0.0 | 13.0 | 0.00 | 0.00 | 0.00 | 48 | 1090.8 |
| 20260502004202 | 61 | 315 | 0.0 | 13.0 | 0.00 | 0.00 | 0.00 | 48 | 1082.5 |
| 20260502003702 | 62 | 315 | 0.0 | 13.0 | 0.00 | 0.00 | 0.00 | 47 | 1066.5 |
| 20260502003202 | 62 | 315 | 0.0 | 13.0 | 0.00 | 0.00 | 0.00 | 47 | 1035.1 |
| 20260502002702 | 62 | 315 | 0.0 | 13.0 | 0.00 | 0.00 | 0.00 | 45 | 972.5 |
| 20260502002202 | 62 | 315 | 0.0 | 13.0 | 0.00 | 0.00 | 0.00 | 46 | 846.2 |
| 20260502001701 | 62 | 19 | 0.0 | 13.0 | 0.00 | 0.00 | 0.00 | 45 | 715.8 |
| 20260502001200 | 62 | 324 | 0.0 | 13.0 | 0.00 | 0.00 | 0.00 | 45 | 1072.4 |
| 20260502000659 | 62 | 324 | 0.0 | 13.0 | 0.00 | 0.00 | 0.00 | 46 | 1021.3 |
| 20260502000158 | 63 | 319 | 1.0 | 13.0 | 0.00 | 0.00 | 0.00 | 43 | 924.8 |
| 20260501235658 | 63 | 18 | 2.0 | 13.0 | 0.00 | 0.00 | 0.00 | 41 | 745.9 |
| 20260501235157 | 63 | 306 | 2.0 | 13.0 | 0.00 | 0.00 | 0.00 | 40 | 640.8 |
| 20260501234656 | 63 | 352 | 2.0 | 13.0 | 0.00 | 0.00 | 0.00 | 42 | 684.9 |
| 20260501234155 | 64 | 342 | 1.0 | 13.0 | 0.00 | 0.00 | 0.00 | 44 | 715.5 |
| 20260501233654 | 64 | 41 | 0.0 | 13.0 | 0.00 | 0.00 | 0.00 | 44 | 270.9 |
| 20260501233153 | 64 | 6 | 1.0 | 13.0 | 0.00 | 0.00 | 0.00 | 41 | 261.3 |
| 20260501232652 | 65 | 2 | 2.0 | 13.0 | 0.00 | 0.00 | 0.00 | 41 | 322.6 |
| 20260501231635 | 65 | 5 | 0.0 | 13.0 | 0.00 | 0.00 | 0.00 | 39 | 748.8 |
| 20260501231134 | 65 | 355 | 1.0 | 13.0 | 0.00 | 0.00 | 0.00 | 41 | 1079.3 |
| 20260501230633 | 65 | 347 | 1.0 | 13.0 | 0.00 | 0.00 | 0.00 | 40 | 941.3 |
| 20260501225617 | 65 | 354 | 1.0 | 13.0 | 0.00 | 0.00 | 0.00 | 41 | 1043.1 |
| 20260501225116 | 65 | 351 | 2.0 | 13.0 | 0.00 | 0.00 | 0.00 | 40 | 899.4 |
| 20260501224615 | 65 | 351 | 2.0 | 13.0 | 0.00 | 0.00 | 0.00 | 41 | 862.9 |
| 20260501224114 | 65 | 5 | 2.0 | 13.0 | 0.00 | 0.00 | 0.00 | 39 | 877.3 |
| 20260501223613 | 65 | 354 | 3.0 | 13.0 | 0.00 | 0.00 | 0.00 | 39 | 867.9 |
| 20260501223112 | 65 | 0 | 1.0 | 13.0 | 0.00 | 0.00 | 0.00 | 41 | 775.6 |
| 20260501222055 | 66 | 278 | 1.0 | 13.0 | 0.00 | 0.00 | 0.00 | 37 | 1018.7 |
| 20260501221554 | 67 | 308 | 2.0 | 13.0 | 0.00 | 0.00 | 0.00 | 37 | 1036.2 |
| 20260501221053 | 67 | 306 | 2.0 | 13.0 | 0.00 | 0.00 | 0.00 | 35 | 1018.3 |
| 20260501220552 | 67 | 314 | 3.0 | 13.0 | 0.00 | 0.00 | 0.00 | 37 | 999.0 |
| 20260501220051 | 67 | 279 | 0.0 | 13.0 | 0.00 | 0.00 | 0.00 | 37 | 969.3 |
| 20260501215551 | 67 | 291 | 1.0 | 13.0 | 0.00 | 0.00 | 0.00 | 35 | 921.3 |
| 20260501215051 | 67 | 353 | 1.0 | 13.0 | 0.00 | 0.00 | 0.00 | 36 | 789.1 |
| 20260501214550 | 67 | 359 | 2.0 | 13.0 | 0.00 | 0.00 | 0.00 | 37 | 950.3 |
| 20260501214049 | 67 | 332 | 1.0 | 13.0 | 0.00 | 0.00 | 0.00 | 37 | 891.4 |
| 20260501213548 | 67 | 359 | 2.0 | 13.0 | 0.00 | 0.00 | 0.00 | 38 | 762.3 |
| 20260501213047 | 66 | 3 | 2.0 | 13.0 | 0.00 | 0.00 | 0.00 | 39 | 581.4 |
| 20260501212546 | 66 | 15 | 3.0 | 13.0 | 0.00 | 0.00 | 0.00 | 39 | 732.4 |
| 20260501212046 | 66 | 319 | 1.0 | 13.0 | 0.00 | 0.00 | 0.00 | 41 | 922.0 |
| 20260501211545 | 66 | 338 | 1.0 | 13.0 | 0.00 | 0.00 | 0.00 | 37 | 882.9 |
| 20260501211044 | 66 | 2 | 2.0 | 13.0 | 0.00 | 0.00 | 0.00 | 38 | 693.5 |
| 20260501210543 | 66 | 353 | 1.0 | 13.0 | 0.00 | 0.00 | 0.00 | 36 | 936.6 |
| 20260501210042 | 66 | 282 | 0.0 | 13.0 | 0.00 | 0.00 | 0.00 | 38 | 896.3 |
| 20260501205541 | 66 | 235 | 1.0 | 13.0 | 0.00 | 0.00 | 0.00 | 37 | 797.8 |
| 20260501204525 | 67 | 5 | 1.0 | 13.0 | 0.00 | 0.00 | 0.00 | 41 | 787.4 |
| 20260501204025 | 67 | 317 | 0.0 | 13.0 | 0.00 | 0.00 | 0.00 | 39 | 960.8 |
| 20260501203523 | 67 | 315 | 2.0 | 13.0 | 0.00 | 0.00 | 0.00 | 37 | 1055.5 |
| 20260501203022 | 66 | 352 | 2.0 | 13.0 | 0.00 | 0.00 | 0.00 | 40 | 1055.3 |
| 20260501202521 | 66 | 321 | 2.0 | 13.0 | 0.00 | 0.00 | 0.00 | 38 | 1044.2 |
| 20260501201504 | 67 | 338 | 0.0 | 13.0 | 0.00 | 0.00 | 0.00 | 39 | 1075.3 |
| 20260501201004 | 67 | 315 | 1.0 | 13.0 | 0.00 | 0.00 | 0.00 | 38 | 991.7 |
| 20260501200502 | 67 | 329 | 1.0 | 13.0 | 0.00 | 0.00 | 0.00 | 37 | 924.2 |
| 20260501200001 | 67 | 227 | 4.0 | 13.0 | 0.00 | 0.00 | 0.00 | 35 | 921.0 |
| 20260501195500 | 68 | 313 | 2.0 | 13.0 | 0.00 | 0.00 | 0.00 | 36 | 945.6 |
| 20260501194959 | 69 | 280 | 2.0 | 13.0 | 0.00 | 0.00 | 0.00 | 33 | 931.3 |
| 20260501194458 | 69 | 268 | 1.0 | 13.0 | 0.00 | 0.00 | 0.00 | 36 | 936.6 |
| 20260501193957 | 69 | 0 | 5.0 | 13.0 | 0.00 | 0.00 | 0.00 | 36 | 881.9 |
| 20260501193456 | 69 | 349 | 3.0 | 13.0 | 0.00 | 0.00 | 0.00 | 36 | 877.4 |
| 20260501192955 | 69 | 329 | 2.0 | 13.0 | 0.00 | 0.00 | 0.00 | 37 | 839.3 |
| 20260501192455 | 70 | 356 | 1.0 | 13.0 | 0.00 | 0.00 | 0.00 | 35 | 869.0 |
| 20260501191954 | 70 | 2 | 1.0 | 13.0 | 0.00 | 0.00 | 0.00 | 34 | 607.3 |
| 20260501191454 | 70 | 6 | 3.0 | 13.0 | 0.00 | 0.00 | 0.00 | 35 | 794.5 |
| 20260501190436 | 68 | 277 | 1.0 | 13.0 | 0.00 | 0.00 | 0.00 | 36 | 766.8 |
| 20260501185419 | 68 | 277 | 2.0 | 13.0 | 0.00 | 0.00 | 0.00 | 40 | 859.1 |
| 20260501184918 | 67 | 228 | 0.0 | 13.0 | 0.00 | 0.00 | 0.00 | 39 | 701.8 |
| 20260501184418 | 67 | 218 | 1.0 | 13.0 | 0.00 | 0.00 | 0.00 | 33 | 610.1 |
| 20260501183917 | 68 | 89 | 2.0 | 13.0 | 0.00 | 0.00 | 0.00 | 31 | 441.4 |
| 20260501183416 | 69 | 355 | 2.0 | 13.0 | 0.00 | 0.00 | 0.00 | 35 | 536.5 |
| 20260501182915 | 69 | 29 | 2.0 | 13.0 | 0.00 | 0.00 | 0.00 | 32 | 519.1 |
| 20260501181858 | 68 | 346 | 2.0 | 13.0 | 0.00 | 0.00 | 0.00 | 33 | 689.0 |
| 20260501180842 | 68 | 270 | 2.0 | 13.0 | 0.00 | 0.00 | 0.00 | 31 | 519.8 |
| 20260501180341 | 67 | 330 | 2.0 | 13.0 | 0.00 | 0.00 | 0.00 | 34 | 507.3 |
| 20260501175841 | 66 | 47 | 1.0 | 13.0 | 0.00 | 0.00 | 0.00 | 35 | 374.6 |
| 20260501175340 | 66 | 51 | 1.0 | 13.0 | 0.00 | 0.00 | 0.00 | 33 | 370.5 |
| 20260501174839 | 65 | 34 | 2.0 | 13.0 | 0.00 | 0.00 | 0.00 | 39 | 460.8 |
| 20260501173822 | 64 | 246 | 1.0 | 13.0 | 0.00 | 0.00 | 0.00 | 41 | 746.5 |
| 20260501173321 | 64 | 205 | 2.0 | 13.0 | 0.00 | 0.00 | 0.00 | 33 | 620.6 |
| 20260501171247 | 64 | 49 | 1.0 | 13.0 | 0.00 | 0.00 | 0.00 | 42 | 584.9 |
| 20260501170746 | 64 | 352 | 1.0 | 13.0 | 0.00 | 0.00 | 0.00 | 41 | 778.9 |
| 20260501170245 | 63 | 300 | 2.0 | 13.0 | 0.00 | 0.00 | 0.00 | 41 | 855.2 |
| 20260501165744 | 63 | 344 | 1.0 | 13.0 | 0.00 | 0.00 | 0.00 | 47 | 675.9 |
| 20260501165243 | 62 | 356 | 2.0 | 13.0 | 0.00 | 0.00 | 0.00 | 44 | 924.2 |
| 20260501164742 | 61 | 289 | 1.0 | 13.0 | 0.00 | 0.00 | 0.00 | 47 | 892.7 |
| 20260501164241 | 61 | 203 | 2.0 | 13.0 | 0.00 | 0.00 | 0.00 | 41 | 812.1 |
| 20260501163740 | 61 | 93 | 3.0 | 13.0 | 0.00 | 0.00 | 0.00 | 39 | 919.1 |
| 20260501162207 | 60 | 238 | 2.0 | 13.0 | 0.00 | 0.00 | 0.00 | 41 | 720.2 |
| 20260501161150 | 60 | 146 | 3.0 | 13.0 | 0.00 | 0.00 | 0.00 | 37 | 679.1 |
| 20260501160649 | 60 | 200 | 1.0 | 13.0 | 0.00 | 0.00 | 0.00 | 41 | 759.1 |
| 20260501160148 | 60 | 193 | 2.0 | 13.0 | 0.00 | 0.00 | 0.00 | 44 | 801.7 |
| 20260501155131 | 59 | 288 | 1.0 | 13.0 | 0.00 | 0.00 | 0.00 | 52 | 910.7 |
| 20260501154630 | 58 | 223 | 2.0 | 13.0 | 0.00 | 0.00 | 0.00 | 46 | 811.3 |
| 20260501154129 | 58 | 229 | 2.0 | 13.0 | 0.00 | 0.00 | 0.00 | 45 | 827.4 |
| 20260501153629 | 58 | 203 | 1.0 | 13.0 | 0.00 | 0.00 | 0.00 | 48 | 811.7 |
| 20260501152612 | 57 | 194 | 1.0 | 13.0 | 0.00 | 0.00 | 0.00 | 45 | 717.7 |
| 20260501152111 | 57 | 188 | 0.0 | 13.0 | 0.00 | 0.00 | 0.00 | 47 | 704.3 |
| 20260501151610 | 57 | 187 | 0.0 | 13.0 | 0.00 | 0.00 | 0.00 | 45 | 689.8 |
| 20260501150037 | 56 | 118 | 2.0 | 13.0 | 0.00 | 0.00 | 0.00 | 47 | 583.3 |
| 20260501144519 | 56 | 180 | 2.0 | 13.0 | 0.00 | 0.00 | 0.00 | 48 | 610.2 |